| time (UTC) | temp C | wind direction | speed KPH | gust KPH | rain 1hr cm | rain 24hr cm | rain mn cm | humidity % | barometer mb |
| 20260906113102 | 33 | 80 | 0.0 | 0.0 | 0.00 | 0.00 | 0.00 | 41 | 1019.9 |
| 20260906112814 | 33 | 167 | 0.0 | 0.0 | 0.00 | 0.00 | 0.00 | 44 | 1019.9 |
| 20260906112314 | 33 | 205 | 0.0 | 0.0 | 0.00 | 0.00 | 0.00 | 44 | 1020.1 |
| 20260906111823 | 33 | 72 | 0.0 | 0.0 | 0.00 | 0.00 | 0.00 | 42 | 1020.0 |
| 20260906111555 | 33 | 240 | 0.0 | 0.0 | 0.00 | 0.00 | 0.00 | 43 | 1020.0 |
| 20260906111352 | 33 | 220 | 0.0 | 0.0 | 0.00 | 0.00 | 0.00 | 44 | 1020.1 |
| 20260906110832 | 33 | 68 | 0.0 | 0.0 | 0.00 | 0.00 | 0.00 | 44 | 1020.1 |
| 20260906110313 | 32 | 77 | 0.0 | 1.6 | 0.00 | 0.00 | 0.00 | 44 | 1020.2 |
| 20260906110020 | 32 | 75 | 0.0 | 11.3 | 0.00 | 0.00 | 0.00 | 45 | 1020.1 |
| 20260906105842 | 32 | 68 | 0.0 | 11.3 | 0.00 | 0.00 | 0.00 | 46 | 1020.2 |
| 20260906105351 | 32 | 326 | 0.0 | 1.6 | 0.00 | 0.00 | 0.00 | 45 | 1020.2 |
| 20260906104830 | 32 | 243 | 0.0 | 0.0 | 0.00 | 0.00 | 0.00 | 46 | 1020.3 |
| 20260906104534 | 32 | 262 | 0.0 | 0.0 | 0.00 | 0.00 | 0.00 | 47 | 1020.3 |
| 20260906104339 | 32 | 214 | 0.0 | 0.0 | 0.00 | 0.00 | 0.00 | 47 | 1020.4 |
| 20260906103820 | 31 | 194 | 0.0 | 0.0 | 0.00 | 0.00 | 0.00 | 48 | 1020.3 |
| 20260906103322 | 31 | 263 | 0.0 | 0.0 | 0.00 | 0.00 | 0.00 | 50 | 1020.4 |
| 20260906103023 | 31 | 77 | 0.0 | 0.0 | 0.00 | 0.00 | 0.00 | 49 | 1020.4 |
| 20260906102831 | 31 | 46 | 0.0 | 0.0 | 0.00 | 0.00 | 0.00 | 49 | 1020.4 |
| 20260906102338 | 31 | 259 | 0.0 | 0.0 | 0.00 | 0.00 | 0.00 | 50 | 1020.6 |
| 20260906101837 | 31 | 248 | 0.0 | 0.0 | 0.00 | 0.00 | 0.00 | 50 | 1020.6 |
| 20260906101531 | 30 | 269 | 0.0 | 0.0 | 0.00 | 0.00 | 0.00 | 51 | 1020.6 |
| 20260906101324 | 31 | 291 | 0.0 | 0.0 | 0.00 | 0.00 | 0.00 | 50 | 1020.7 |
| 20260906100830 | 31 | 268 | 0.0 | 0.0 | 0.00 | 0.00 | 0.00 | 51 | 1020.7 |
| 20260906100332 | 31 | 281 | 0.0 | 0.0 | 0.00 | 0.00 | 0.00 | 51 | 1020.8 |
| 20260906100047 | 31 | 294 | 0.0 | 0.0 | 0.00 | 0.00 | 0.00 | 51 | 1020.7 |
| 20260906095814 | 31 | 288 | 0.0 | 0.0 | 0.00 | 0.00 | 0.00 | 51 | 1020.8 |
| 20260906095322 | 31 | 162 | 0.0 | 0.0 | 0.00 | 0.00 | 0.00 | 52 | 1020.9 |
| 20260906094850 | 30 | 282 | 0.0 | 0.0 | 0.00 | 0.00 | 0.00 | 53 | 1020.9 |
| 20260906094607 | 30 | 293 | 0.0 | 0.0 | 0.00 | 0.00 | 0.00 | 53 | 1020.9 |
| 20260906094332 | 30 | 281 | 0.0 | 0.0 | 0.00 | 0.00 | 0.00 | 54 | 1020.8 |
| 20260906093838 | 30 | 282 | 0.0 | 0.0 | 0.00 | 0.00 | 0.00 | 54 | 1021.0 |
| 20260906093340 | 30 | 250 | 0.0 | 0.0 | 0.00 | 0.00 | 0.00 | 55 | 1021.0 |
| 20260906093041 | 29 | 280 | 0.0 | 0.0 | 0.00 | 0.00 | 0.00 | 55 | 1020.9 |
| 20260906092827 | 30 | 275 | 0.0 | 0.0 | 0.00 | 0.00 | 0.00 | 55 | 1020.9 |
| 20260906092329 | 29 | 302 | 0.0 | 0.0 | 0.00 | 0.00 | 0.00 | 56 | 1020.9 |
| 20260906091837 | 29 | 286 | 0.0 | 0.0 | 0.00 | 0.00 | 0.00 | 57 | 1021.0 |
| 20260906091514 | 29 | 290 | 0.0 | 0.0 | 0.00 | 0.00 | 0.00 | 56 | 1020.9 |
| 20260906091318 | 29 | 115 | 0.0 | 0.0 | 0.00 | 0.00 | 0.00 | 58 | 1021.0 |
| 20260906090818 | 30 | 277 | 0.0 | 0.0 | 0.00 | 0.00 | 0.00 | 56 | 1020.9 |
| 20260906090322 | 29 | 238 | 0.0 | 0.0 | 0.00 | 0.00 | 0.00 | 58 | 1021.0 |
| 20260906090110 | 28 | 280 | 0.0 | 0.0 | 0.00 | 0.00 | 0.00 | 58 | 1020.9 |
| 20260906085823 | 28 | 280 | 0.0 | 0.0 | 0.00 | 0.00 | 0.00 | 58 | 1021.0 |
| 20260906085331 | 28 | 272 | 0.0 | 0.0 | 0.00 | 0.00 | 0.00 | 59 | 1020.9 |
| 20260906084823 | 28 | 299 | 0.0 | 0.0 | 0.00 | 0.00 | 0.00 | 60 | 1021.0 |
| 20260906084532 | 28 | 274 | 0.0 | 0.0 | 0.00 | 0.00 | 0.00 | 61 | 1020.8 |
| 20260906084333 | 28 | 274 | 0.0 | 0.0 | 0.00 | 0.00 | 0.00 | 61 | 1020.8 |
| 20260906083814 | 28 | 274 | 0.0 | 0.0 | 0.00 | 0.00 | 0.00 | 62 | 1020.9 |
| 20260906083322 | 28 | 278 | 0.0 | 0.0 | 0.00 | 0.00 | 0.00 | 63 | 1020.9 |
| 20260906083058 | 27 | 280 | 0.0 | 0.0 | 0.00 | 0.00 | 0.00 | 63 | 1020.8 |
| 20260906082823 | 27 | 290 | 0.0 | 0.0 | 0.00 | 0.00 | 0.00 | 63 | 1020.9 |
| 20260906082332 | 27 | 315 | 0.0 | 0.0 | 0.00 | 0.00 | 0.00 | 63 | 1020.8 |
| 20260906081834 | 27 | 65 | 0.0 | 0.0 | 0.00 | 0.00 | 0.00 | 63 | 1020.8 |
| 20260906081529 | 27 | 65 | 0.0 | 0.0 | 0.00 | 0.00 | 0.00 | 65 | 1020.8 |
| 20260906081342 | 27 | 65 | 0.0 | 0.0 | 0.00 | 0.00 | 0.00 | 64 | 1020.9 |
| 20260906080823 | 27 | 65 | 0.0 | 0.0 | 0.00 | 0.00 | 0.00 | 64 | 1021.0 |
| 20260906080331 | 27 | 84 | 0.0 | 0.0 | 0.00 | 0.00 | 0.00 | 64 | 1020.9 |
| 20260906080001 | 26 | 230 | 0.0 | 0.0 | 0.00 | 0.00 | 0.00 | 67 | 1020.7 |
| 20260906075814 | 27 | 230 | 0.0 | 0.0 | 0.00 | 0.00 | 0.00 | 67 | 1020.9 |
| 20260906075316 | 26 | 94 | 0.0 | 0.0 | 0.00 | 0.00 | 0.00 | 69 | 1020.9 |
| 20260906074844 | 26 | 94 | 0.0 | 0.0 | 0.00 | 0.00 | 0.00 | 69 | 1020.9 |
| 20260906074544 | 26 | 94 | 0.0 | 0.0 | 0.00 | 0.00 | 0.00 | 69 | 1020.8 |
| 20260906074351 | 26 | 94 | 0.0 | 0.0 | 0.00 | 0.00 | 0.00 | 69 | 1020.8 |
| 20260906073831 | 26 | 93 | 0.0 | 0.0 | 0.00 | 0.00 | 0.00 | 71 | 1020.7 |
| 20260906073322 | 25 | 93 | 0.0 | 0.0 | 0.00 | 0.00 | 0.00 | 72 | 1020.7 |
| 20260906073005 | 25 | 301 | 0.0 | 0.0 | 0.00 | 0.00 | 0.00 | 73 | 1020.6 |
| 20260906072822 | 25 | 301 | 0.0 | 0.0 | 0.00 | 0.00 | 0.00 | 73 | 1020.7 |
| 20260906072330 | 25 | 301 | 0.0 | 0.0 | 0.00 | 0.00 | 0.00 | 74 | 1020.7 |
| 20260906071832 | 24 | 301 | 0.0 | 0.0 | 0.00 | 0.00 | 0.00 | 74 | 1020.5 |
| 20260906071538 | 24 | 301 | 0.0 | 0.0 | 0.00 | 0.00 | 0.00 | 74 | 1020.5 |
| 20260906071314 | 25 | 301 | 0.0 | 0.0 | 0.00 | 0.00 | 0.00 | 75 | 1020.6 |
| 20260906070824 | 24 | 301 | 0.0 | 0.0 | 0.00 | 0.00 | 0.00 | 76 | 1020.6 |
| 20260906070326 | 24 | 301 | 0.0 | 0.0 | 0.00 | 0.00 | 0.00 | 76 | 1020.5 |
| 20260906070031 | 23 | 301 | 0.0 | 0.0 | 0.00 | 0.00 | 0.00 | 78 | 1020.5 |
| 20260906065835 | 23 | 301 | 0.0 | 0.0 | 0.00 | 0.00 | 0.00 | 78 | 1020.5 |
| 20260906065318 | 23 | 301 | 0.0 | 0.0 | 0.00 | 0.00 | 0.00 | 79 | 1020.6 |
| 20260906064820 | 23 | 301 | 0.0 | 0.0 | 0.00 | 0.00 | 0.00 | 78 | 1020.5 |
| 20260906064523 | 23 | 301 | 0.0 | 0.0 | 0.00 | 0.00 | 0.00 | 79 | 1020.4 |
| 20260906064330 | 23 | 285 | 0.0 | 0.0 | 0.00 | 0.00 | 0.00 | 80 | 1020.5 |
| 20260906063829 | 23 | 287 | 0.0 | 0.0 | 0.00 | 0.00 | 0.00 | 79 | 1020.5 |
| 20260906063338 | 23 | 301 | 0.0 | 0.0 | 0.00 | 0.00 | 0.00 | 79 | 1020.4 |
| 20260906063013 | 23 | 301 | 0.0 | 0.0 | 0.00 | 0.00 | 0.00 | 78 | 1020.3 |
| 20260906062818 | 23 | 53 | 0.0 | 0.0 | 0.00 | 0.00 | 0.00 | 78 | 1020.3 |
| 20260906062320 | 23 | 113 | 0.0 | 0.0 | 0.00 | 0.00 | 0.00 | 78 | 1020.3 |
| 20260906061829 | 23 | 109 | 0.0 | 0.0 | 0.00 | 0.00 | 0.00 | 78 | 1020.3 |
| 20260906061506 | 22 | 109 | 0.0 | 0.0 | 0.00 | 0.00 | 0.00 | 79 | 1020.2 |
| 20260906061330 | 23 | 109 | 0.0 | 0.0 | 0.00 | 0.00 | 0.00 | 80 | 1020.2 |
| 20260906060838 | 22 | 109 | 0.0 | 0.0 | 0.00 | 0.00 | 0.00 | 81 | 1020.2 |
| 20260906060320 | 22 | 109 | 0.0 | 0.0 | 0.00 | 0.00 | 0.00 | 83 | 1020.1 |
| 20260906060059 | 21 | 109 | 0.0 | 0.0 | 0.00 | 0.00 | 0.00 | 83 | 1020.0 |
| 20260906055822 | 21 | 109 | 0.0 | 0.0 | 0.00 | 0.00 | 0.00 | 83 | 1020.2 |
| 20260906055330 | 21 | 109 | 0.0 | 0.0 | 0.00 | 0.00 | 0.00 | 84 | 1020.1 |
| 20260906054839 | 21 | 109 | 0.0 | 0.0 | 0.00 | 0.00 | 0.00 | 84 | 1020.0 |
| 20260906054509 | 21 | 71 | 0.0 | 0.0 | 0.00 | 0.00 | 0.00 | 85 | 1019.9 |
| 20260906054321 | 21 | 71 | 0.0 | 0.0 | 0.00 | 0.00 | 0.00 | 86 | 1019.9 |
| 20260906053852 | 20 | 71 | 0.0 | 0.0 | 0.00 | 0.00 | 0.00 | 86 | 1019.9 |
| 20260906053332 | 20 | 71 | 0.0 | 0.0 | 0.00 | 0.00 | 0.00 | 87 | 1019.8 |
| 20260906053052 | 20 | 71 | 0.0 | 0.0 | 0.00 | 0.00 | 0.00 | 87 | 1019.8 |
| 20260906052814 | 20 | 71 | 0.0 | 0.0 | 0.00 | 0.00 | 0.00 | 88 | 1019.9 |
| 20260906052323 | 20 | 71 | 0.0 | 0.0 | 0.00 | 0.00 | 0.00 | 88 | 1019.8 |
| 20260906051821 | 20 | 71 | 0.0 | 0.0 | 0.00 | 0.00 | 0.00 | 88 | 1019.7 |
| 20260906051536 | 19 | 71 | 0.0 | 0.0 | 0.00 | 0.00 | 0.00 | 88 | 1019.6 |
| 20260906051329 | 19 | 71 | 0.0 | 0.0 | 0.00 | 0.00 | 0.00 | 88 | 1019.8 |
| 20260906050829 | 19 | 71 | 0.0 | 0.0 | 0.00 | 0.00 | 0.00 | 88 | 1019.7 |
| 20260906050318 | 19 | 71 | 0.0 | 0.0 | 0.00 | 0.00 | 0.00 | 88 | 1019.6 |
| 20260906045830 | 19 | 71 | 0.0 | 0.0 | 0.00 | 0.00 | 0.00 | 88 | 1019.7 |
| 20260906045339 | 19 | 71 | 0.0 | 0.0 | 0.00 | 0.00 | 0.00 | 88 | 1019.5 |
| 20260906044821 | 19 | 71 | 0.0 | 0.0 | 0.00 | 0.00 | 0.00 | 88 | 1019.5 |
| 20260906044544 | 19 | 71 | 0.0 | 0.0 | 0.00 | 0.00 | 0.00 | 88 | 1019.3 |
| 20260906044324 | 19 | 71 | 0.0 | 0.0 | 0.00 | 0.00 | 0.00 | 87 | 1019.4 |
| 20260906043813 | 20 | 71 | 0.0 | 0.0 | 0.00 | 0.00 | 0.00 | 88 | 1019.3 |
| 20260906043314 | 20 | 71 | 0.0 | 0.0 | 0.00 | 0.00 | 0.00 | 87 | 1019.2 |
| 20260906043036 | 19 | 71 | 0.0 | 0.0 | 0.00 | 0.00 | 0.00 | 87 | 1019.1 |
| 20260906042822 | 20 | 71 | 0.0 | 0.0 | 0.00 | 0.00 | 0.00 | 87 | 1019.2 |
| 20260906042324 | 20 | 71 | 0.0 | 0.0 | 0.00 | 0.00 | 0.00 | 87 | 1019.2 |
| 20260906041833 | 20 | 71 | 0.0 | 0.0 | 0.00 | 0.00 | 0.00 | 87 | 1019.3 |
| 20260906041505 | 20 | 71 | 0.0 | 0.0 | 0.00 | 0.00 | 0.00 | 87 | 1019.1 |
| 20260906041315 | 20 | 210 | 0.0 | 0.0 | 0.00 | 0.00 | 0.00 | 87 | 1019.1 |
| 20260906040823 | 20 | 210 | 0.0 | 0.0 | 0.00 | 0.00 | 0.00 | 87 | 1019.1 |
| 20260906040323 | 20 | 210 | 0.0 | 0.0 | 0.00 | 0.00 | 0.00 | 87 | 1019.1 |
| 20260906040018 | 20 | 80 | 0.0 | 0.0 | 0.00 | 0.00 | 0.00 | 87 | 1019.0 |
| 20260906035831 | 20 | 80 | 0.0 | 0.0 | 0.00 | 0.00 | 0.00 | 87 | 1019.1 |
| 20260906035313 | 20 | 80 | 0.0 | 0.0 | 0.00 | 0.00 | 0.00 | 87 | 1019.1 |
| 20260906034820 | 20 | 80 | 0.0 | 0.0 | 0.00 | 0.00 | 0.00 | 87 | 1019.1 |
| 20260906034547 | 20 | 80 | 0.0 | 0.0 | 0.00 | 0.00 | 0.00 | 87 | 1019.0 |
| 20260906034323 | 20 | 80 | 0.0 | 0.0 | 0.00 | 0.00 | 0.00 | 87 | 1019.1 |
| 20260906033833 | 20 | 80 | 0.0 | 0.0 | 0.00 | 0.00 | 0.00 | 87 | 1019.1 |
| 20260906033315 | 20 | 80 | 0.0 | 0.0 | 0.00 | 0.00 | 0.00 | 87 | 1019.1 |
| 20260906033045 | 20 | 80 | 0.0 | 0.0 | 0.00 | 0.00 | 0.00 | 87 | 1019.1 |
| 20260906032816 | 20 | 80 | 0.0 | 0.0 | 0.00 | 0.00 | 0.00 | 87 | 1019.2 |
| 20260906032325 | 20 | 80 | 0.0 | 0.0 | 0.00 | 0.00 | 0.00 | 86 | 1019.2 |
| 20260906031827 | 21 | 80 | 0.0 | 0.0 | 0.00 | 0.00 | 0.00 | 86 | 1019.2 |
| 20260906031538 | 20 | 80 | 0.0 | 0.0 | 0.00 | 0.00 | 0.00 | 86 | 1019.0 |
| 20260906031336 | 21 | 80 | 0.0 | 0.0 | 0.00 | 0.00 | 0.00 | 86 | 1019.1 |
| 20260906030819 | 21 | 80 | 0.0 | 0.0 | 0.00 | 0.00 | 0.00 | 86 | 1019.1 |
| 20260906030321 | 21 | 86 | 0.0 | 0.0 | 0.00 | 0.00 | 0.00 | 86 | 1019.2 |
| 20260906030032 | 20 | 87 | 0.0 | 0.0 | 0.00 | 0.00 | 0.00 | 87 | 1019.1 |
| 20260906025830 | 21 | 79 | 0.0 | 0.0 | 0.00 | 0.00 | 0.00 | 87 | 1019.1 |
| 20260906025332 | 21 | 79 | 0.0 | 0.0 | 0.00 | 0.00 | 0.00 | 87 | 1019.1 |
| 20260906024815 | 21 | 76 | 0.0 | 0.0 | 0.00 | 0.00 | 0.00 | 87 | 1019.1 |
| 20260906024518 | 20 | 84 | 0.0 | 0.0 | 0.00 | 0.00 | 0.00 | 87 | 1019.1 |
| 20260906024323 | 21 | 84 | 0.0 | 0.0 | 0.00 | 0.00 | 0.00 | 87 | 1019.2 |
| 20260906023825 | 20 | 92 | 0.0 | 0.0 | 0.00 | 0.00 | 0.00 | 87 | 1019.2 |
| 20260906023334 | 20 | 62 | 0.0 | 0.0 | 0.00 | 0.00 | 0.00 | 87 | 1019.2 |
| 20260906023011 | 20 | 82 | 0.0 | 0.0 | 0.00 | 0.00 | 0.00 | 87 | 1019.3 |
| 20260906022816 | 20 | 80 | 0.0 | 0.0 | 0.00 | 0.00 | 0.00 | 87 | 1019.3 |
| 20260906022324 | 20 | 84 | 0.0 | 0.0 | 0.00 | 0.00 | 0.00 | 87 | 1019.2 |
| 20260906021826 | 20 | 96 | 0.0 | 0.0 | 0.00 | 0.00 | 0.00 | 87 | 1019.2 |
| 20260906021546 | 20 | 101 | 0.0 | 0.0 | 0.00 | 0.00 | 0.00 | 87 | 1019.2 |
| 20260906021355 | 20 | 86 | 0.0 | 0.0 | 0.00 | 0.00 | 0.00 | 87 | 1019.2 |
| 20260906020816 | 20 | 90 | 0.0 | 0.0 | 0.00 | 0.00 | 0.00 | 87 | 1019.2 |
| 20260906020343 | 20 | 93 | 0.0 | 0.0 | 0.00 | 0.00 | 0.00 | 87 | 1019.2 |
| 20260906020100 | 20 | 93 | 0.0 | 0.0 | 0.00 | 0.00 | 0.00 | 86 | 1019.0 |
| 20260906015824 | 20 | 88 | 0.0 | 0.0 | 0.00 | 0.00 | 0.00 | 86 | 1019.3 |
| 20260906015331 | 20 | 94 | 0.0 | 0.0 | 0.00 | 0.00 | 0.00 | 86 | 1019.3 |
| 20260906014813 | 20 | 94 | 0.0 | 0.0 | 0.00 | 0.00 | 0.00 | 86 | 1019.3 |
| 20260906014552 | 20 | 94 | 0.0 | 0.0 | 0.00 | 0.00 | 0.00 | 86 | 1019.2 |
| 20260906014402 | 20 | 94 | 0.0 | 0.0 | 0.00 | 0.00 | 0.00 | 86 | 1019.3 |
| 20260906013847 | 21 | 94 | 0.0 | 0.0 | 0.00 | 0.00 | 0.00 | 86 | 1019.3 |
| 20260906013327 | 21 | 94 | 0.0 | 0.0 | 0.00 | 0.00 | 0.00 | 86 | 1019.4 |
| 20260906013037 | 20 | 94 | 0.0 | 0.0 | 0.00 | 0.00 | 0.00 | 86 | 1019.2 |
| 20260906012836 | 21 | 92 | 0.0 | 0.0 | 0.00 | 0.00 | 0.00 | 86 | 1019.4 |
| 20260906012318 | 21 | 83 | 0.0 | 0.0 | 0.00 | 0.00 | 0.00 | 85 | 1019.3 |
| 20260906011819 | 21 | 83 | 0.0 | 0.0 | 0.00 | 0.00 | 0.00 | 85 | 1019.3 |
| 20260906011531 | 21 | 83 | 0.0 | 0.0 | 0.00 | 0.00 | 0.00 | 85 | 1019.3 |
| 20260906011329 | 21 | 83 | 0.0 | 0.0 | 0.00 | 0.00 | 0.00 | 85 | 1019.2 |
| 20260906010830 | 21 | 83 | 0.0 | 0.0 | 0.00 | 0.00 | 0.00 | 85 | 1019.2 |
| 20260906010336 | 21 | 83 | 0.0 | 0.0 | 0.00 | 0.00 | 0.00 | 85 | 1019.1 |
| 20260906010129 | 21 | 83 | 0.0 | 0.0 | 0.00 | 0.00 | 0.00 | 85 | 1019.1 |
| 20260906005838 | 21 | 83 | 0.0 | 0.0 | 0.00 | 0.00 | 0.00 | 85 | 1019.2 |
| 20260906005327 | 21 | 83 | 0.0 | 0.0 | 0.00 | 0.00 | 0.00 | 85 | 1019.1 |
| 20260906004829 | 21 | 83 | 0.0 | 0.0 | 0.00 | 0.00 | 0.00 | 85 | 1019.1 |
| 20260906004529 | 21 | 83 | 0.0 | 0.0 | 0.00 | 0.00 | 0.00 | 85 | 1019.0 |
| 20260906004337 | 21 | 83 | 0.0 | 0.0 | 0.00 | 0.00 | 0.00 | 85 | 1019.1 |
| 20260906003836 | 21 | 83 | 0.0 | 0.0 | 0.00 | 0.00 | 0.00 | 84 | 1019.1 |
| 20260906003323 | 21 | 83 | 0.0 | 0.0 | 0.00 | 0.00 | 0.00 | 84 | 1019.0 |
| 20260906003102 | 21 | 81 | 0.0 | 0.0 | 0.00 | 0.00 | 0.00 | 84 | 1019.0 |
| 20260906002844 | 21 | 82 | 0.0 | 0.0 | 0.00 | 0.00 | 0.00 | 84 | 1019.1 |
| 20260906002331 | 21 | 81 | 0.0 | 0.0 | 0.00 | 0.00 | 0.00 | 84 | 1019.1 |
| 20260906001832 | 21 | 79 | 0.0 | 0.0 | 0.00 | 0.00 | 0.00 | 84 | 1019.2 |
| 20260906001554 | 21 | 84 | 0.0 | 0.0 | 0.00 | 0.00 | 0.00 | 84 | 1019.2 |
| 20260906001315 | 21 | 84 | 0.0 | 0.0 | 0.00 | 0.00 | 0.00 | 84 | 1019.2 |
| 20260906000824 | 21 | 84 | 0.0 | 0.0 | 0.00 | 0.00 | 0.00 | 84 | 1019.3 |
| 20260906000326 | 21 | 90 | 0.0 | 0.0 | 0.00 | 0.00 | 0.00 | 84 | 1019.3 |
| 20260906000024 | 21 | 90 | 0.0 | 0.0 | 0.00 | 0.00 | 0.00 | 84 | 1019.3 |
| 20260905235832 | 21 | 90 | 0.0 | 0.0 | 0.00 | 0.00 | 0.00 | 84 | 1019.4 |
| 20260905235313 | 21 | 90 | 0.0 | 0.0 | 0.00 | 0.00 | 0.00 | 84 | 1019.4 |
| 20260905234815 | 21 | 90 | 0.0 | 0.0 | 0.00 | 0.00 | 0.00 | 84 | 1019.3 |
| 20260905234516 | 21 | 90 | 0.0 | 0.0 | 0.00 | 0.00 | 0.00 | 84 | 1019.3 |
| 20260905234344 | 21 | 90 | 0.0 | 0.0 | 0.00 | 0.00 | 0.00 | 84 | 1019.4 |
| 20260905233853 | 21 | 91 | 0.0 | 0.0 | 0.00 | 0.00 | 0.00 | 84 | 1019.4 |
| 20260905233359 | 21 | 90 | 0.0 | 0.0 | 0.00 | 0.00 | 0.00 | 83 | 1019.3 |
| 20260905233006 | 21 | 91 | 0.0 | 0.0 | 0.00 | 0.00 | 0.00 | 83 | 1019.3 |
| 20260905232841 | 21 | 90 | 0.0 | 0.0 | 0.00 | 0.00 | 0.00 | 83 | 1019.4 |
| 20260905232345 | 21 | 90 | 0.0 | 0.0 | 0.00 | 0.00 | 0.00 | 83 | 1019.4 |
| 20260905231835 | 21 | 90 | 0.0 | 0.0 | 0.00 | 0.00 | 0.00 | 83 | 1019.4 |
| 20260905231533 | 21 | 90 | 0.0 | 0.0 | 0.00 | 0.00 | 0.00 | 83 | 1019.4 |
| 20260905231334 | 21 | 91 | 0.0 | 0.0 | 0.00 | 0.00 | 0.00 | 83 | 1019.5 |
| 20260905230816 | 21 | 90 | 0.0 | 0.0 | 0.00 | 0.00 | 0.00 | 82 | 1019.5 |
| 20260905230324 | 22 | 90 | 0.0 | 0.0 | 0.00 | 0.00 | 0.00 | 83 | 1019.6 |
| 20260905230106 | 21 | 90 | 0.0 | 0.0 | 0.00 | 0.00 | 0.00 | 83 | 1019.5 |
| 20260905225827 | 22 | 90 | 0.0 | 0.0 | 0.00 | 0.00 | 0.00 | 82 | 1019.6 |
| 20260905225337 | 22 | 90 | 0.0 | 0.0 | 0.00 | 0.00 | 0.00 | 82 | 1019.5 |
| 20260905224817 | 22 | 90 | 0.0 | 0.0 | 0.00 | 0.00 | 0.00 | 82 | 1019.6 |
| 20260905224531 | 22 | 90 | 0.0 | 0.0 | 0.00 | 0.00 | 0.00 | 82 | 1019.6 |
| 20260905224346 | 22 | 90 | 0.0 | 0.0 | 0.00 | 0.00 | 0.00 | 82 | 1019.5 |
| 20260905223830 | 22 | 90 | 0.0 | 0.0 | 0.00 | 0.00 | 0.00 | 82 | 1019.6 |
| 20260905223331 | 22 | 91 | 0.0 | 0.0 | 0.00 | 0.00 | 0.00 | 82 | 1019.5 |
| 20260905223037 | 22 | 91 | 0.0 | 0.0 | 0.00 | 0.00 | 0.00 | 82 | 1019.5 |
| 20260905222821 | 22 | 91 | 0.0 | 0.0 | 0.00 | 0.00 | 0.00 | 82 | 1019.5 |
| 20260905222321 | 22 | 90 | 0.0 | 0.0 | 0.00 | 0.00 | 0.00 | 82 | 1019.4 |
| 20260905221824 | 22 | 91 | 0.0 | 0.0 | 0.00 | 0.00 | 0.00 | 82 | 1019.4 |
| 20260905221516 | 22 | 91 | 0.0 | 0.0 | 0.00 | 0.00 | 0.00 | 81 | 1019.3 |
| 20260905221329 | 22 | 90 | 0.0 | 0.0 | 0.00 | 0.00 | 0.00 | 81 | 1019.4 |
| 20260905220831 | 22 | 90 | 0.0 | 0.0 | 0.00 | 0.00 | 0.00 | 81 | 1019.4 |
| 20260905220339 | 22 | 91 | 0.0 | 0.0 | 0.00 | 0.00 | 0.00 | 80 | 1019.2 |
| 20260905220049 | 22 | 90 | 0.0 | 0.0 | 0.00 | 0.00 | 0.00 | 80 | 1019.2 |
| 20260905215820 | 23 | 90 | 0.0 | 0.0 | 0.00 | 0.00 | 0.00 | 80 | 1019.3 |
| 20260905215329 | 23 | 90 | 0.0 | 0.0 | 0.00 | 0.00 | 0.00 | 79 | 1019.1 |
| 20260905214830 | 23 | 90 | 0.0 | 0.0 | 0.00 | 0.00 | 0.00 | 79 | 1019.1 |
| 20260905214541 | 23 | 90 | 0.0 | 0.0 | 0.00 | 0.00 | 0.00 | 79 | 1018.9 |
| 20260905214339 | 23 | 90 | 0.0 | 0.0 | 0.00 | 0.00 | 0.00 | 79 | 1019.0 |
| 20260905213820 | 23 | 90 | 0.0 | 0.0 | 0.00 | 0.00 | 0.00 | 79 | 1019.1 |
| 20260905213329 | 23 | 82 | 0.0 | 0.0 | 0.00 | 0.00 | 0.00 | 80 | 1019.0 |
| 20260905213018 | 22 | 266 | 0.0 | 0.0 | 0.00 | 0.00 | 0.00 | 81 | 1018.9 |
| 20260905212829 | 22 | 264 | 0.0 | 0.0 | 0.00 | 0.00 | 0.00 | 81 | 1018.9 |
| 20260905212323 | 22 | 79 | 0.0 | 0.0 | 0.00 | 0.00 | 0.00 | 82 | 1018.9 |
| 20260905211827 | 22 | 263 | 0.0 | 0.0 | 0.00 | 0.00 | 0.00 | 80 | 1018.9 |
| 20260905211545 | 22 | 262 | 0.0 | 0.0 | 0.00 | 0.00 | 0.00 | 80 | 1018.8 |
| 20260905211344 | 23 | 262 | 0.0 | 0.0 | 0.00 | 0.00 | 0.00 | 80 | 1018.8 |
| 20260905210816 | 23 | 263 | 0.0 | 0.0 | 0.00 | 0.00 | 0.00 | 80 | 1018.9 |
| 20260905210344 | 23 | 262 | 0.0 | 0.0 | 0.00 | 0.00 | 0.00 | 80 | 1019.0 |
| 20260905210038 | 22 | 263 | 0.0 | 0.0 | 0.00 | 0.00 | 0.00 | 80 | 1018.8 |
| 20260905205840 | 23 | 263 | 0.0 | 0.0 | 0.00 | 0.00 | 0.00 | 80 | 1018.9 |
| 20260905205314 | 23 | 267 | 0.0 | 0.0 | 0.00 | 0.00 | 0.00 | 79 | 1019.0 |
| 20260905204817 | 23 | 276 | 0.0 | 0.0 | 0.00 | 0.00 | 0.00 | 79 | 1019.0 |
| 20260905204546 | 22 | 276 | 0.0 | 0.0 | 0.00 | 0.00 | 0.00 | 79 | 1018.8 |
| 20260905204339 | 23 | 276 | 0.0 | 0.0 | 0.00 | 0.00 | 0.00 | 79 | 1018.9 |
| 20260905203816 | 23 | 276 | 0.0 | 0.0 | 0.00 | 0.00 | 0.00 | 79 | 1018.9 |
| 20260905203320 | 22 | 276 | 0.0 | 0.0 | 0.00 | 0.00 | 0.00 | 80 | 1018.9 |
| 20260905203103 | 22 | 276 | 0.0 | 0.0 | 0.00 | 0.00 | 0.00 | 80 | 1018.8 |
| 20260905202859 | 22 | 276 | 0.0 | 0.0 | 0.00 | 0.00 | 0.00 | 79 | 1018.9 |
| 20260905202332 | 22 | 276 | 0.0 | 0.0 | 0.00 | 0.00 | 0.00 | 79 | 1018.9 |
| 20260905201836 | 22 | 276 | 0.0 | 0.0 | 0.00 | 0.00 | 0.00 | 79 | 1018.8 |
| 20260905201518 | 22 | 276 | 0.0 | 0.0 | 0.00 | 0.00 | 0.00 | 78 | 1018.8 |
| 20260905201330 | 22 | 276 | 0.0 | 0.0 | 0.00 | 0.00 | 0.00 | 78 | 1018.8 |
| 20260905200837 | 23 | 276 | 0.0 | 0.0 | 0.00 | 0.00 | 0.00 | 78 | 1018.9 |
| 20260905200330 | 23 | 276 | 0.0 | 0.0 | 0.00 | 0.00 | 0.00 | 78 | 1018.8 |
| 20260905200048 | 22 | 276 | 0.0 | 0.0 | 0.00 | 0.00 | 0.00 | 78 | 1018.8 |
| 20260905195338 | 23 | 276 | 0.0 | 0.0 | 0.00 | 0.00 | 0.00 | 78 | 1018.8 |
| 20260905194833 | 23 | 276 | 0.0 | 0.0 | 0.00 | 0.00 | 0.00 | 79 | 1018.8 |
| 20260905194537 | 22 | 276 | 0.0 | 0.0 | 0.00 | 0.00 | 0.00 | 79 | 1018.8 |
| 20260905194353 | 23 | 276 | 0.0 | 0.0 | 0.00 | 0.00 | 0.00 | 79 | 1018.9 |
| 20260905193827 | 23 | 276 | 0.0 | 0.0 | 0.00 | 0.00 | 0.00 | 78 | 1018.8 |
| 20260905193320 | 23 | 276 | 0.0 | 0.0 | 0.00 | 0.00 | 0.00 | 78 | 1018.8 |
| 20260905193023 | 23 | 276 | 0.0 | 0.0 | 0.00 | 0.00 | 0.00 | 78 | 1018.7 |
| 20260905192821 | 23 | 276 | 0.0 | 0.0 | 0.00 | 0.00 | 0.00 | 78 | 1018.7 |
| 20260905192340 | 23 | 276 | 0.0 | 0.0 | 0.00 | 0.00 | 0.00 | 77 | 1018.6 |
| 20260905191827 | 23 | 276 | 0.0 | 0.0 | 0.00 | 0.00 | 0.00 | 77 | 1018.6 |
| 20260905191535 | 23 | 276 | 0.0 | 0.0 | 0.00 | 0.00 | 0.00 | 77 | 1018.5 |
| 20260905191345 | 23 | 276 | 0.0 | 0.0 | 0.00 | 0.00 | 0.00 | 77 | 1018.6 |
| 20260905190926 | 23 | 276 | 0.0 | 0.0 | 0.00 | 0.00 | 0.00 | 77 | 1018.5 |
| 20260905190348 | 23 | 276 | 0.0 | 0.0 | 0.00 | 0.00 | 0.00 | 77 | 1018.5 |
| 20260905190032 | 23 | 276 | 0.0 | 0.0 | 0.00 | 0.00 | 0.00 | 77 | 1018.5 |
| 20260905185936 | 23 | 276 | 0.0 | 0.0 | 0.00 | 0.00 | 0.00 | 77 | 1018.5 |
| 20260905185341 | 24 | 276 | 0.0 | 0.0 | 0.00 | 0.00 | 0.00 | 77 | 1018.4 |
| 20260905184817 | 24 | 276 | 0.0 | 0.0 | 0.00 | 0.00 | 0.00 | 76 | 1018.4 |
| 20260905184527 | 23 | 276 | 0.0 | 0.0 | 0.00 | 0.00 | 0.00 | 76 | 1018.3 |
| 20260905184333 | 24 | 276 | 0.0 | 0.0 | 0.00 | 0.00 | 0.00 | 76 | 1018.5 |
| 20260905183825 | 24 | 276 | 0.0 | 0.0 | 0.00 | 0.00 | 0.00 | 76 | 1018.3 |
| 20260905183346 | 25 | 276 | 0.0 | 0.0 | 0.00 | 0.00 | 0.00 | 75 | 1018.3 |
| 20260905183029 | 24 | 276 | 0.0 | 0.0 | 0.00 | 0.00 | 0.00 | 75 | 1018.2 |
| 20260905182831 | 25 | 276 | 0.0 | 0.0 | 0.00 | 0.00 | 0.00 | 75 | 1018.2 |
| 20260905182327 | 25 | 276 | 0.0 | 0.0 | 0.00 | 0.00 | 0.00 | 75 | 1018.2 |
| 20260905181831 | 25 | 275 | 0.0 | 0.0 | 0.00 | 0.00 | 0.00 | 75 | 1018.2 |
| 20260905181505 | 24 | 277 | 0.0 | 0.0 | 0.00 | 0.00 | 0.00 | 74 | 1018.1 |
| 20260905181332 | 25 | 277 | 0.0 | 0.0 | 0.00 | 0.00 | 0.00 | 74 | 1018.2 |
| 20260905180818 | 25 | 277 | 0.0 | 0.0 | 0.00 | 0.00 | 0.00 | 73 | 1018.2 |
| 20260905180315 | 25 | 276 | 0.0 | 0.0 | 0.00 | 0.00 | 0.00 | 72 | 1018.1 |
| 20260905180025 | 25 | 276 | 0.0 | 0.0 | 0.00 | 0.00 | 0.00 | 72 | 1018.0 |
| 20260905175817 | 25 | 275 | 0.0 | 0.0 | 0.00 | 0.00 | 0.00 | 72 | 1018.1 |
| 20260905175313 | 25 | 275 | 0.0 | 0.0 | 0.00 | 0.00 | 0.00 | 71 | 1018.1 |
| 20260905174840 | 26 | 270 | 0.0 | 0.0 | 0.00 | 0.00 | 0.00 | 70 | 1018.0 |
| 20260905174504 | 25 | 274 | 0.0 | 0.0 | 0.00 | 0.00 | 0.00 | 70 | 1017.9 |
| 20260905174315 | 26 | 274 | 0.0 | 0.0 | 0.00 | 0.00 | 0.00 | 69 | 1018.0 |
| 20260905173820 | 26 | 284 | 0.0 | 0.0 | 0.00 | 0.00 | 0.00 | 69 | 1018.0 |
| 20260905173317 | 26 | 290 | 0.0 | 0.0 | 0.00 | 0.00 | 0.00 | 68 | 1018.0 |
| 20260905173026 | 26 | 281 | 0.0 | 0.0 | 0.00 | 0.00 | 0.00 | 68 | 1017.8 |
| 20260905172845 | 27 | 284 | 0.0 | 0.0 | 0.00 | 0.00 | 0.00 | 67 | 1018.0 |
| 20260905172325 | 27 | 286 | 0.0 | 0.0 | 0.00 | 0.00 | 0.00 | 66 | 1018.0 |
| 20260905171832 | 27 | 276 | 0.0 | 4.8 | 0.00 | 0.00 | 0.00 | 64 | 1017.9 |
| 20260905171557 | 27 | 281 | 0.0 | 4.8 | 0.00 | 0.00 | 0.00 | 64 | 1017.8 |
| 20260905171313 | 28 | 295 | 0.0 | 4.8 | 0.00 | 0.00 | 0.00 | 65 | 1018.0 |
| 20260905170815 | 28 | 291 | 0.0 | 3.2 | 0.00 | 0.00 | 0.00 | 64 | 1017.9 |
| 20260905170344 | 28 | 269 | 0.0 | 4.8 | 0.00 | 0.00 | 0.00 | 63 | 1017.9 |
| 20260905170026 | 28 | 281 | 0.0 | 4.8 | 0.00 | 0.00 | 0.00 | 62 | 1017.8 |
| 20260905165832 | 28 | 223 | 0.0 | 4.8 | 0.00 | 0.00 | 0.00 | 63 | 1017.9 |
| 20260905165333 | 28 | 276 | 0.0 | 6.4 | 0.00 | 0.00 | 0.00 | 62 | 1017.8 |
| 20260905164814 | 28 | 9 | 0.0 | 0.0 | 0.00 | 0.00 | 0.00 | 59 | 1017.8 |
| 20260905164516 | 28 | 283 | 0.0 | 0.0 | 0.00 | 0.00 | 0.00 | 59 | 1017.7 |
| 20260905164323 | 28 | 276 | 0.0 | 0.0 | 0.00 | 0.00 | 0.00 | 58 | 1017.7 |
| 20260905163825 | 28 | 262 | 0.0 | 0.0 | 0.00 | 0.00 | 0.00 | 58 | 1017.8 |
| 20260905163352 | 28 | 285 | 0.0 | 6.4 | 0.00 | 0.00 | 0.00 | 58 | 1017.9 |
| 20260905163047 | 28 | 260 | 0.0 | 6.4 | 0.00 | 0.00 | 0.00 | 57 | 1017.7 |
| 20260905162841 | 29 | 198 | 0.0 | 6.4 | 0.00 | 0.00 | 0.00 | 57 | 1017.9 |
| 20260905162321 | 29 | 287 | 0.0 | 8.0 | 0.00 | 0.00 | 0.00 | 56 | 1017.9 |
| 20260905161822 | 29 | 251 | 0.0 | 6.4 | 0.00 | 0.00 | 0.00 | 57 | 1017.9 |
| 20260905161520 | 28 | 279 | 0.0 | 9.7 | 0.00 | 0.00 | 0.00 | 57 | 1017.7 |
| 20260905161351 | 29 | 284 | 0.0 | 11.3 | 0.00 | 0.00 | 0.00 | 57 | 1017.9 |
| 20260905160839 | 29 | 257 | 1.6 | 11.3 | 0.00 | 0.00 | 0.00 | 56 | 1017.8 |
| 20260905160320 | 29 | 247 | 0.0 | 8.0 | 0.00 | 0.00 | 0.00 | 57 | 1017.7 |
| 20260905160031 | 29 | 322 | 0.0 | 8.0 | 0.00 | 0.00 | 0.00 | 56 | 1017.7 |
| 20260905155845 | 29 | 262 | 0.0 | 8.0 | 0.00 | 0.00 | 0.00 | 56 | 1017.8 |
| 20260905155331 | 29 | 279 | 1.6 | 8.0 | 0.00 | 0.00 | 0.00 | 54 | 1017.7 |
| 20260905154820 | 29 | 302 | 1.6 | 8.0 | 0.00 | 0.00 | 0.00 | 56 | 1017.8 |
| 20260905154549 | 29 | 290 | 0.0 | 6.4 | 0.00 | 0.00 | 0.00 | 55 | 1017.7 |
| 20260905154323 | 29 | 264 | 0.0 | 4.8 | 0.00 | 0.00 | 0.00 | 54 | 1017.8 |
| 20260905153831 | 30 | 297 | 0.0 | 4.8 | 0.00 | 0.00 | 0.00 | 52 | 1017.7 |
| 20260905153315 | 30 | 293 | 0.0 | 3.2 | 0.00 | 0.00 | 0.00 | 55 | 1017.6 |
| 20260905153042 | 29 | 288 | 0.0 | 14.5 | 0.00 | 0.00 | 0.00 | 57 | 1017.7 |
| 20260905152817 | 30 | 289 | 0.0 | 14.5 | 0.00 | 0.00 | 0.00 | 57 | 1017.6 |
| 20260905152324 | 30 | 316 | 3.2 | 14.5 | 0.00 | 0.00 | 0.00 | 56 | 1017.6 |
| 20260905151826 | 30 | 245 | 0.0 | 6.4 | 0.00 | 0.00 | 0.00 | 56 | 1017.7 |
| 20260905151537 | 30 | 250 | 0.0 | 6.4 | 0.00 | 0.00 | 0.00 | 56 | 1017.6 |
| 20260905151314 | 30 | 288 | 0.0 | 8.0 | 0.00 | 0.00 | 0.00 | 56 | 1017.7 |
| 20260905150816 | 30 | 273 | 1.6 | 11.3 | 0.00 | 0.00 | 0.00 | 56 | 1017.9 |
| 20260905150339 | 30 | 256 | 0.0 | 11.3 | 0.00 | 0.00 | 0.00 | 56 | 1017.8 |
| 20260905150052 | 30 | 257 | 0.0 | 11.3 | 0.00 | 0.00 | 0.00 | 54 | 1017.7 |
| 20260905145825 | 30 | 270 | 1.6 | 9.7 | 0.00 | 0.00 | 0.00 | 56 | 1017.9 |
| 20260905145327 | 30 | 278 | 1.6 | 11.3 | 0.00 | 0.00 | 0.00 | 55 | 1017.7 |
| 20260905144835 | 30 | 265 | 3.2 | 12.9 | 0.00 | 0.00 | 0.00 | 55 | 1017.8 |
| 20260905144522 | 30 | 268 | 0.0 | 12.9 | 0.00 | 0.00 | 0.00 | 55 | 1017.7 |
| 20260905144317 | 30 | 263 | 1.6 | 12.9 | 0.00 | 0.00 | 0.00 | 55 | 1017.8 |
| 20260905143817 | 30 | 254 | 3.2 | 12.9 | 0.00 | 0.00 | 0.00 | 53 | 1017.9 |
| 20260905143326 | 31 | 245 | 1.6 | 11.3 | 0.00 | 0.00 | 0.00 | 51 | 1017.8 |
| 20260905143149 | 31 | 293 | 0.0 | 9.7 | 0.00 | 0.00 | 0.00 | 51 | 1017.8 |
| 20260905141537 | 31 | 263 | 0.0 | 0.0 | 0.00 | 0.00 | 0.00 | 53 | 1017.7 |
| 20260905141331 | 31 | 255 | 0.0 | 0.0 | 0.00 | 0.00 | 0.00 | 53 | 1017.8 |
| 20260905140833 | 31 | 271 | 0.0 | 6.4 | 0.00 | 0.00 | 0.00 | 52 | 1017.9 |
| 20260905140336 | 31 | 173 | 0.0 | 9.7 | 0.00 | 0.00 | 0.00 | 55 | 1018.0 |
| 20260905140007 | 30 | 296 | 1.6 | 9.7 | 0.00 | 0.00 | 0.00 | 54 | 1017.8 |
| 20260905135842 | 31 | 260 | 0.0 | 9.7 | 0.00 | 0.00 | 0.00 | 53 | 1017.9 |
| 20260905135406 | 31 | 279 | 0.0 | 8.0 | 0.00 | 0.00 | 0.00 | 52 | 1018.0 |
| 20260905134826 | 31 | 267 | 0.0 | 8.0 | 0.00 | 0.00 | 0.00 | 54 | 1018.1 |
| 20260905134600 | 30 | 259 | 1.6 | 8.0 | 0.00 | 0.00 | 0.00 | 53 | 1017.9 |
| 20260905134356 | 31 | 250 | 0.0 | 4.8 | 0.00 | 0.00 | 0.00 | 53 | 1018.1 |
| 20260905133817 | 31 | 252 | 0.0 | 9.7 | 0.00 | 0.00 | 0.00 | 54 | 1018.1 |
| 20260905133318 | 31 | 285 | 0.0 | 14.5 | 0.00 | 0.00 | 0.00 | 53 | 1018.1 |
| 20260905133024 | 30 | 276 | 0.0 | 14.5 | 0.00 | 0.00 | 0.00 | 54 | 1018.1 |
| 20260905132826 | 31 | 266 | 3.2 | 14.5 | 0.00 | 0.00 | 0.00 | 54 | 1018.2 |
| 20260905132324 | 31 | 304 | 1.6 | 11.3 | 0.00 | 0.00 | 0.00 | 53 | 1018.2 |
| 20260905131853 | 31 | 265 | 0.0 | 1.6 | 0.00 | 0.00 | 0.00 | 52 | 1018.2 |
| 20260905131555 | 31 | 295 | 0.0 | 1.6 | 0.00 | 0.00 | 0.00 | 52 | 1018.2 |
| 20260905131340 | 31 | 52 | 0.0 | 1.6 | 0.00 | 0.00 | 0.00 | 53 | 1018.3 |
| 20260905130840 | 31 | 212 | 0.0 | 11.3 | 0.00 | 0.00 | 0.00 | 52 | 1018.4 |
| 20260905130324 | 31 | 314 | 1.6 | 11.3 | 0.00 | 0.00 | 0.00 | 52 | 1018.5 |
| 20260905130058 | 31 | 274 | 1.6 | 11.3 | 0.00 | 0.00 | 0.00 | 50 | 1018.5 |
| 20260905125853 | 31 | 261 | 0.0 | 6.4 | 0.00 | 0.00 | 0.00 | 50 | 1018.5 |
| 20260905125352 | 31 | 278 | 0.0 | 3.2 | 0.00 | 0.00 | 0.00 | 50 | 1018.6 |
| 20260905124831 | 31 | 225 | 0.0 | 9.7 | 0.00 | 0.00 | 0.00 | 53 | 1018.6 |
| 20260905124606 | 30 | 263 | 0.0 | 9.7 | 0.00 | 0.00 | 0.00 | 53 | 1018.6 |
| 20260905124401 | 31 | 293 | 1.6 | 9.7 | 0.00 | 0.00 | 0.00 | 51 | 1018.7 |
| 20260905123840 | 31 | 248 | 0.0 | 9.7 | 0.00 | 0.00 | 0.00 | 53 | 1018.7 |
| 20260905123329 | 31 | 283 | 1.6 | 9.7 | 0.00 | 0.00 | 0.00 | 53 | 1018.7 |
| 20260905123011 | 30 | 268 | 0.0 | 6.4 | 0.00 | 0.00 | 0.00 | 53 | 1018.7 |
| 20260905122830 | 31 | 245 | 0.0 | 6.4 | 0.00 | 0.00 | 0.00 | 54 | 1018.7 |
| 20260905122337 | 30 | 274 | 0.0 | 12.9 | 0.00 | 0.00 | 0.00 | 54 | 1018.7 |
| 20260905121819 | 30 | 290 | 3.2 | 12.9 | 0.00 | 0.00 | 0.00 | 54 | 1018.7 |
| 20260905121545 | 30 | 306 | 0.0 | 9.7 | 0.00 | 0.00 | 0.00 | 53 | 1018.7 |
| 20260905121322 | 30 | 271 | 0.0 | 11.3 | 0.00 | 0.00 | 0.00 | 53 | 1018.8 |
| 20260905120831 | 30 | 304 | 4.8 | 12.9 | 0.00 | 0.00 | 0.00 | 54 | 1018.8 |
| 20260905120329 | 30 | 238 | 3.2 | 12.9 | 0.00 | 0.00 | 0.00 | 54 | 1018.8 |
| 20260905120030 | 30 | 248 | 0.0 | 1.6 | 0.00 | 0.00 | 0.00 | 54 | 1018.7 |
| 20260905115839 | 30 | 269 | 0.0 | 1.6 | 0.00 | 0.00 | 0.00 | 55 | 1018.8 |
| 20260905115321 | 30 | 290 | 0.0 | 0.0 | 0.00 | 0.00 | 0.00 | 55 | 1018.8 |
| 20260905114824 | 30 | 297 | 0.0 | 9.7 | 0.00 | 0.00 | 0.00 | 54 | 1018.9 |
| 20260905114522 | 30 | 295 | 0.0 | 9.7 | 0.00 | 0.00 | 0.00 | 54 | 1018.9 |
| 20260905114352 | 30 | 314 | 0.0 | 9.7 | 0.00 | 0.00 | 0.00 | 56 | 1019.1 |
| 20260905113839 | 30 | 314 | 0.0 | 9.7 | 0.00 | 0.00 | 0.00 | 53 | 1019.1 |
| 20260905113321 | 30 | 239 | 1.6 | 9.7 | 0.00 | 0.00 | 0.00 | 54 | 1019.0 |